Regional Weather Roundup
Issued by NWS Sioux Falls, SD

Home | Current Version | Previous Version | Graphics & Text | Print | Product List | Glossary On
Versions: 1 2 3 4 5 6 7 8 9 10 11 12 13 14 15 16 17 18 19 20 21 22 23 24 25 26 27 28 29 30 31 32 33 34 35 36 37 38 39 40 41 42 43 44 45 46 47 48 49 50
000
ASUS43 KFSD 202002
RWRFSD

WEATHER ROUNDUP FOR SE SOUTH DAKOTA/SW MINNESOTA/NW IOWA
NATIONAL WEATHER SERVICE SIOUX FALLS SD
300 PM CDT SAT SEP 20 2014

NOTE: "FAIR" INDICATES FEW OR NO CLOUDS BELOW 12,000 FEET WITH NO
SIGNIFICANT WEATHER AND OR OBSTRUCTIONS TO VISIBILITY.


SDZ038>040-050-052>070-202100-
SOUTHEAST SOUTH DAKOTA

CITY           SKY/WX    TMP DP  RH WIND       PRES   REMARKS
CHAMBERLAIN    MOSUNNY   81  46  28 NW28G35   29.95S
HURON          MOSUNNY   84  46  26 NW24G39   29.86S
MADISON        FAIR      77  55  47 W13G21    29.87F
MITCHELL       PTSUNNY   83  49  30 NW26G38   29.89F
SIOUX FALLS    MOSUNNY   83  54  36 W13G23    29.87F
WINNER         FAIR      84  45  25 NW32G40   29.99S
YANKTON        MOSUNNY   82  54  36 W15G24    29.90F
$$

MNZ071-072-080-081-089-090-097-098-202100-
SOUTHWEST MINNESOTA

CITY           SKY/WX    TMP DP  RH WIND       PRES   REMARKS
FAIRMONT       MOSUNNY   81  52  36 NW14G21   29.83S
JACKSON        SUNNY     79  52  38 W16       29.85F
LUVERNE        SUNNY     81  50  34 W18G25    29.87F
MARSHALL       SUNNY     81  54  39 W22G31    29.80F
MONTEVIDEO     MOSUNNY   81  55  41 W7G18     29.78F
PIPESTONE      SUNNY     81  52  36 W18G31    29.87S
REDWOOD FALLS  MOSUNNY   80  55  42 W16G23    29.79F
TRACY          SUNNY     81  54  39 W14       29.82F
WINDOM         MOSUNNY   81  54  39 W15       29.83F
WORTHINGTON    SUNNY     79  54  41 W14G24    29.86F
$$

IAZ001>003-012>014-020>022-031-032-NEZ013-014-SDZ071-202100-
NORTHWEST IOWA

CITY           SKY/WX    TMP DP  RH WIND       PRES   REMARKS
CHEROKEE       SUNNY     81  56  42 W14       29.89S
DENISON        SUNNY     81  59  47 W8G15     29.89F
ESTHERVILLE    SUNNY     80  54  40 W16G23    29.85S
LE MARS        SUNNY     82  57  42 W9        29.90F
ORANGE CITY    SUNNY     82  52  34 W16       29.90S
SHELDON        SUNNY     81  57  44 W16G23    29.87F
SIOUX CITY     SUNNY     84  56  38 NW9G16    29.91F
SPENCER        SUNNY     82  55  39 W16G26    29.87S
$$

ABBREVIATIONS USED IN REMARKS
   TC - TEMPERATURE IN CELSIUS
  WCI - WIND CHILL INDEX
   HX - HEAT INDEX
  VSB - VISIBILITY




USA.gov is the U.S. government's official web portal to all federal, state and local government web resources and services.